• în România
  • Lista ţărilor
  • Pe 7 zile
  • Temperatura apei
  • Hartă satelitară
  • Meteo pe hartă
  • Widget-uri
  • user-avatar
    Intrare

    Meteo pe oră la Tirana

    Astăzi, 22 Februarie, Miercuri

    Timp Temperatura Precipitaţii Vânt Presiune Umiditate
    00:00 +5°C° 0 mm 1 m/s 756 mmHg 73%
    01:00 +5°C° 0 mm 1 m/s 757 mmHg 72%
    02:00 +5°C° 0 mm 1 m/s 756 mmHg 72%
    03:00 +5°C° 0 mm 1 m/s 756 mmHg 73%
    04:00 +5°C° 0 mm 1 m/s 756 mmHg 74%
    05:00 +5°C° 0 mm 1 m/s 756 mmHg 74%
    06:00 +6°C° 0 mm 1 m/s 757 mmHg 75%
    07:00 +6°C° 0 mm 1 m/s 757 mmHg 75%
    08:00 +8°C° 0 mm 1 m/s 757 mmHg 69%
    09:00 +11°C° 0 mm 1 m/s 757 mmHg 62%
    10:00 +14°C° 0 mm 1 m/s 757 mmHg 56%
    11:00 +14°C° 0 mm 1 m/s 757 mmHg 55%
    12:00 +15°C° 0 mm 1 m/s 757 mmHg 55%
    13:00 +16°C° 0 mm 1 m/s 757 mmHg 55%
    14:00 +15°C° 0 mm 1 m/s 756 mmHg 60%
    15:00 +15°C° 0 mm 1 m/s 756 mmHg 65%
    16:00 +14°C° 0 mm 1 m/s 756 mmHg 70%
    17:00 +12°C° 0 mm 1 m/s 756 mmHg 77%
    18:00 +10°C° 0 mm 1 m/s 756 mmHg 84%
    19:00 +7°C° 0 mm 0 m/s 757 mmHg 91%
    20:00 +8°C° 0 mm 1 m/s 757 mmHg 91%
    21:00 +8°C° 0 mm 1 m/s 757 mmHg 91%
    22:00 +7°C° 0 mm 2 m/s 757 mmHg 91%
    23:00 +7°C° 0 mm 2 m/s 757 mmHg 90%

    Mâine, 23 Februarie, Joi

    Timp Temperatura Precipitaţii Vânt Presiune Umiditate
    00:00 +7°C° 0 mm 2 m/s 757 mmHg 90%
    01:00 +6°C° 0 mm 2 m/s 757 mmHg 90%
    02:00 +6°C° 0 mm 2 m/s 757 mmHg 90%
    03:00 +5°C° 0 mm 3 m/s 757 mmHg 89%
    04:00 +5°C° 0 mm 3 m/s 757 mmHg 89%
    05:00 +5°C° 0 mm 3 m/s 757 mmHg 87%
    06:00 +5°C° 0 mm 3 m/s 757 mmHg 85%
    07:00 +5°C° 0 mm 3 m/s 757 mmHg 83%
    08:00 +9°C° 0 mm 3 m/s 757 mmHg 74%
    09:00 +11°C° 0 mm 3 m/s 757 mmHg 65%
    10:00 +14°C° 0 mm 3 m/s 757 mmHg 56%
    11:00 +14°C° 0 mm 3 m/s 757 mmHg 54%
    12:00 +16°C° 0 mm 3 m/s 756 mmHg 53%
    13:00 +16°C° 0 mm 3 m/s 756 mmHg 51%
    14:00 +16°C° 0 mm 3 m/s 756 mmHg 55%
    15:00 +14°C° 0 mm 4 m/s 755 mmHg 59%
    16:00 +14°C° 0 mm 4 m/s 755 mmHg 63%
    17:00 +12°C° 0 mm 4 m/s 755 mmHg 71%
    18:00 +10°C° 0 mm 4 m/s 756 mmHg 79%
    19:00 +7°C° 0 mm 4 m/s 756 mmHg 86%
    20:00 +7°C° 0 mm 4 m/s 756 mmHg 87%
    21:00 +7°C° 0 mm 4 m/s 756 mmHg 88%
    22:00 +7°C° 0 mm 4 m/s 756 mmHg 89%
    23:00 +6°C° 0 mm 4 m/s 756 mmHg 90%

    Poimâine, 24 Februarie, Vineri

    Timp Temperatura Precipitaţii Vânt Presiune Umiditate
    00:00 +6°C° 0 mm 4 m/s 756 mmHg 90%
    01:00 +6°C° 0 mm 4 m/s 756 mmHg 90%
    02:00 +6°C° 0 mm 4 m/s 756 mmHg 89%
    03:00 +6°C° 0 mm 4 m/s 755 mmHg 89%
    04:00 +6°C° 0 mm 4 m/s 755 mmHg 89%
    05:00 +6°C° 0 mm 4 m/s 755 mmHg 88%
    06:00 +7°C° 0 mm 5 m/s 755 mmHg 87%
    07:00 +7°C° 0 mm 5 m/s 755 mmHg 86%
    08:00 +9°C° 0 mm 5 m/s 755 mmHg 79%
    09:00 +12°C° 0 mm 5 m/s 755 mmHg 71%
    10:00 +15°C° 0 mm 6 m/s 755 mmHg 64%
    11:00 +16°C° 0 mm 6 m/s 754 mmHg 62%
    12:00 +16°C° 0 mm 6 m/s 754 mmHg 59%
    13:00 +17°C° 0 mm 7 m/s 754 mmHg 57%
    14:00 +17°C° 0 mm 7 m/s 753 mmHg 60%
    15:00 +16°C° 0 mm 7 m/s 753 mmHg 63%
    16:00 +16°C° 0 mm 7 m/s 752 mmHg 67%
    17:00 +14°C° 0 mm 7 m/s 753 mmHg 73%
    18:00 +12°C° 0 mm 7 m/s 753 mmHg 79%
    19:00 +10°C° 0 mm 8 m/s 753 mmHg 85%
    20:00 +10°C° 0,1 mm 8 m/s 752 mmHg 84%
    21:00 +10°C° 0,1 mm 8 m/s 752 mmHg 83%
    22:00 +10°C° 0,1 mm 8 m/s 752 mmHg 82%
    23:00 +10°C° 0,4 mm 8 m/s 752 mmHg 81%

    25 Februarie, Sâmbătă

    Timp Temperatura Precipitaţii Vânt Presiune Umiditate
    00:00 +10°C° 0,4 mm 7 m/s 751 mmHg 80%
    01:00 +10°C° 0,4 mm 7 m/s 751 mmHg 79%
    02:00 +10°C° 0,4 mm 7 m/s 751 mmHg 80%
    03:00 +10°C° 0,4 mm 7 m/s 751 mmHg 81%
    04:00 +10°C° 0,4 mm 7 m/s 750 mmHg 82%
    05:00 +10°C° 0,8 mm 7 m/s 750 mmHg 83%
    06:00 +11°C° 0,8 mm 7 m/s 751 mmHg 85%
    07:00 +11°C° 0,8 mm 7 m/s 751 mmHg 86%
    08:00 +11°C° 0,7 mm 6 m/s 751 mmHg 85%
    09:00 +13°C° 0,7 mm 5 m/s 751 mmHg 84%
    10:00 +14°C° 0,7 mm 4 m/s 752 mmHg 83%
    11:00 +14°C° 0,7 mm 4 m/s 752 mmHg 80%
    12:00 +15°C° 0,7 mm 4 m/s 752 mmHg 78%
    13:00 +15°C° 0,7 mm 5 m/s 752 mmHg 75%
    14:00 +15°C° 1,4 mm 5 m/s 752 mmHg 76%
    15:00 +15°C° 1,4 mm 5 m/s 752 mmHg 77%
    16:00 +14°C° 1,4 mm 5 m/s 752 mmHg 78%
    17:00 +13°C° 1,3 mm 5 m/s 753 mmHg 80%
    18:00 +12°C° 1,3 mm 5 m/s 754 mmHg 82%
    19:00 +10°C° 1,3 mm 5 m/s 754 mmHg 84%
    20:00 +10°C° 1,1 mm 5 m/s 755 mmHg 84%
    21:00 +9°C° 1,1 mm 5 m/s 755 mmHg 83%
    22:00 +9°C° 1,1 mm 5 m/s 756 mmHg 83%
    23:00 +9°C° 0,7 mm 5 m/s 756 mmHg 84%

    26 Februarie, Duminică

    Timp Temperatura Precipitaţii Vânt Presiune Umiditate
    00:00 +8°C° 0,7 mm 4 m/s 756 mmHg 84%
    01:00 +8°C° 0,7 mm 4 m/s 756 mmHg 85%
    02:00 +8°C° 0,3 mm 4 m/s 756 mmHg 85%
    03:00 +8°C° 0,3 mm 4 m/s 756 mmHg 85%
    04:00 +8°C° 0,3 mm 4 m/s 756 mmHg 85%
    05:00 +9°C° 0 mm 3 m/s 756 mmHg 85%
    06:00 +9°C° 0 mm 3 m/s 757 mmHg 84%
    07:00 +9°C° 0 mm 3 m/s 757 mmHg 84%
    08:00 +12°C° 0 mm 2 m/s 757 mmHg 78%
    09:00 +14°C° 0 mm 2 m/s 757 mmHg 72%
    10:00 +16°C° 0 mm 2 m/s 757 mmHg 67%
    11:00 +17°C° 0 mm 2 m/s 757 mmHg 64%
    12:00 +18°C° 0 mm 2 m/s 757 mmHg 62%
    13:00 +19°C° 0 mm 2 m/s 756 mmHg 59%
    14:00 +18°C° 0 mm 2 m/s 756 mmHg 63%
    15:00 +18°C° 0 mm 3 m/s 756 mmHg 67%
    16:00 +17°C° 0 mm 3 m/s 756 mmHg 71%
    17:00 +14°C° 0 mm 3 m/s 756 mmHg 77%
    18:00 +14°C° 0 mm 2 m/s 756 mmHg 83%
    19:00 +12°C° 0 mm 2 m/s 757 mmHg 89%
    20:00 +12°C° 0 mm 2 m/s 757 mmHg 89%
    21:00 +11°C° 0 mm 1 m/s 757 mmHg 90%
    22:00 +11°C° 0 mm 1 m/s 757 mmHg 90%
    23:00 +11°C° 0 mm 1 m/s 757 mmHg 90%

    27 Februarie, Luni

    Timp Temperatura Precipitaţii Vânt Presiune Umiditate
    00:00 +9°C° 0 mm 2 m/s 757 mmHg 90%
    01:00 +9°C° 0 mm 2 m/s 757 mmHg 90%
    02:00 +9°C° 0 mm 2 m/s 757 mmHg 90%
    03:00 +9°C° 0 mm 2 m/s 757 mmHg 90%
    04:00 +8°C° 0 mm 2 m/s 757 mmHg 90%
    05:00 +9°C° 0 mm 2 m/s 757 mmHg 89%
    06:00 +9°C° 0 mm 2 m/s 757 mmHg 89%
    07:00 +10°C° 0 mm 1 m/s 758 mmHg 89%
    08:00 +13°C° 0 mm 1 m/s 758 mmHg 80%
    09:00 +15°C° 0 mm 1 m/s 758 mmHg 71%
    10:00 +19°C° 0 mm 1 m/s 758 mmHg 62%
    11:00 +18°C° 0 mm 2 m/s 758 mmHg 61%
    12:00 +19°C° 0 mm 3 m/s 757 mmHg 59%
    13:00 +19°C° 0 mm 3 m/s 757 mmHg 58%
    14:00 +19°C° 0 mm 3 m/s 757 mmHg 61%
    15:00 +18°C° 0 mm 3 m/s 757 mmHg 65%
    16:00 +18°C° 0 mm 4 m/s 757 mmHg 69%
    17:00 +16°C° 0 mm 3 m/s 757 mmHg 76%
    18:00 +13°C° 0 mm 3 m/s 757 mmHg 84%
    19:00 +11°C° 0 mm 3 m/s 757 mmHg 91%
    20:00 +12°C° 0 mm 2 m/s 757 mmHg 91%
    21:00 +10°C° 0 mm 2 m/s 757 mmHg 90%
    22:00 +10°C° 0 mm 2 m/s 757 mmHg 90%
    23:00 +10°C° 0 mm 2 m/s 757 mmHg 89%
    Arată mai mult